Regional Weather Roundup
Issued by NWS Green Bay, WI

Home | Current Version | Previous Version | Graphics & Text | Print | Product List | Glossary Off
Versions: 1 2 3 4 5 6 7 8 9 10 11 12 13 14 15 16 17 18 19 20 21 22 23 24 25 26 27 28 29 30 31 32 33 34 35 36 37 38 39 40 41 42 43 44 45 46 47 48 49 50

000
ASUS43 KGRB 271711
RWRGRB

NORTH-CENTRAL AND NORTHEAST WISCONSIN REGIONAL WEATHER ROUNDUP
NATIONAL WEATHER SERVICE GREEN BAY WI
1200 PM CDT FRI MAY 27 2016

WIZ005-009-010>012-018-019-271800-
NORTH CENTRAL WISCONSIN

CITY           SKY/WX    TMP DP  RH WIND       PRES   REMARKS
IRONWOOD       CLOUDY    66  61  82 E6        29.86F
MANITOWISH WTR NOT AVBL
ARBOR VITAE    PTSUNNY   72  62  70 E5        29.90S
EAGLE RIVER      N/A     69  59  69 E5        29.91R
LAND O LAKES   CLOUDY    71  59  66 SE5       29.93R
RHINELANDER    CLOUDY    69  59  70 E6        29.90S
PHILLIPS       CLOUDY    69  58  67 E5        29.87S
ANTIGO         CLOUDY    69  61  74 E6        29.90S
TOMAHAWK       CLOUDY    66  59  76 CALM      29.90S
MERRILL        CLOUDY    70  63  78 E5        29.88F
$$

WIZ013-073-271800-
NORTHEAST WISCONSIN

CITY           SKY/WX    TMP DP  RH WIND       PRES   REMARKS
IRON MOUNTAIN  CLOUDY    72  60  66 E5        29.90R
MARINETTE      CLOUDY    63  56  78 E7        29.91R
OCONTO         CLOUDY    68  66  93 E7        29.89R
$$

WIZ017-030-035>037-045-271800-
CENTRAL WISCONSIN

CITY           SKY/WX    TMP DP  RH WIND       PRES   REMARKS
MEDFORD        CLOUDY    66  58  76 E7        29.86S
WAUSAU         CLOUDY    72  60  66 E6        29.85F
MOSINEE        PTSUNNY   70  63  78 E5        29.87F
MARSHFIELD     PTSUNNY   76  60  57 SE15      29.84F
WISC RAPIDS    CLOUDY    76  58  53 SE12      29.86S
STEVENS POINT  CLOUDY    71  60  69 E9        29.86F
WAUPACA        CLOUDY    70  68  94 E7        29.87F
SHAWANO        CLOUDY    74  64  71 E7        29.88S
CLINTONVILLE   LGT RAIN  73  63  68 S5        29.88R
WAUTOMA        CLOUDY    70  65  84 E6        29.86F
$$

WIZ038-039-048-051-271800-
FOX VALLEY

CITY           SKY/WX    TMP DP  RH WIND       PRES   REMARKS
NWS GREEN BAY  FOG       67  65  93 SW7G18    29.91R THUNDER VSB 1/2
APPLETON       DRIZZLE   64  64 100 VRB6      29.88F
OSHKOSH        CLOUDY    70  66  87 NE6       29.87F
FOND DU LAC    MOSUNNY   70  65  84 VRB3      29.88S
$$

WIZ022-050-052-271800-
EAST CENTRAL WISCONSIN

CITY           SKY/WX    TMP DP  RH WIND       PRES   REMARKS
EPHRAIM        FAIR      65  61  87 SE6       29.91S
STURGEON BAY   NOT AVBL
MANITOWOC      CLOUDY    57  53  86 SE9       29.90R
SHEBOYGAN      CLOUDY    71  65  81 S8        29.89R HAZE
$$

LMZ563-521-522-541>543-271800-
LAKESHORE

STATION/POSITION TIME  TEMP    WIND        PRES    VSBY  WAVE
                       AIR SEA DIR/SP/G                  HT/PER
                 (UTC) (F)     (DEG/KT/KT) (MB)    (MI)  (FT/S)
SHEBOYGAN LKSHOR 1700   53     160/ 14/ 15 1012.8R
KEWAUNEE LKSHORE 1600   54     120/  3/  4 1012.2R
ALGOMA MARINA    1617          100/  6/  7   N/A
NORTHPORT PIER   1600   52     120/  6/  8 1012.9F
N MID LAKE BUOY  1650   48 46   60/  6/  6 1013.2F         1
SISTER BAY LKSHO 1619   70        CALM       N/A
CHAMBERS ISLAND  1600   58     360/  6/  8 1012.9S
MENOMINEE LKSHOR 1600   57      30/ 10/ 11 1011.3F
$$




USA.gov is the U.S. government's official web portal to all federal, state and local government web resources and services.